User: anonymous   Login
Location: Ammerl�gen
(47.2167°N, 9.6000°E)
Time: 15:55:32
(UTC+00:00)
Language:

PRISM - Orbit

View from above orbital plane
View from above orbital plane
View from above satellite
View from above satellite

Ground track
Ground track

The orbit data is extracted from the following two-line orbital elements,

1 33493U 09002B   21331.66191788  .00001746  00000-0  15265-3 0  9999
2 33493  98.2093 302.2960 0016145 106.2152 254.0847 14.98107645698751
Epoch (UTC): 27 November 2021 15:53:09
Eccentricity: 0.0016145
inclination: 98.2093°
perigee height: 561 km
apogee height: 584 km
right ascension of ascending node: 302.2960°
argument of perigee: 106.2152°
revolutions per day: 14.98107645
mean anomaly at epoch: 254.0847°
orbit number at epoch: 69875

The dashed part of the orbit path shows where the satellite is in the earth's shadow,  

DLR